{"data":{"norad_id":27465,"epoch":"2026-09-19T23:14:26.526048Z","epoch_age_seconds":57064,"freshness":"FRESH","line1":"1 27465U 02036B   26262.96836257  .00000001  00000+0 -66106-4 0  9993","line2":"2 27465  82.4792 282.1821 0027244  46.9687 313.3669 12.44947975 99642","mean_motion":12.44947975,"eccentricity":0.0027244,"inclination_deg":82.4792,"raan_deg":282.1821,"arg_perigee_deg":46.9687,"mean_anomaly_deg":313.3669,"bstar":-6.6106e-5,"rev_number":9964,"period_min":115.66748401675,"perigee_km":1464.2734081491,"apogee_km":1507.1218703314,"semimajor_km":7863.8346392403,"source":"CELESTRAK","updated_at":"2026-09-20T09:00:13.583014Z"}}